Other Public Products
Issued by NWS Grand Forks, ND

Home | Current Version | Previous Version | Graphics & Text | Print | Product List | Glossary On
Versions: 1 2 3 4 5 6 7 8 9 10 11 12 13 14 15 16 17 18 19 20 21 22 23 24 25 26 27 28 29 30 31 32 33 34 35 36 37 38 39 40 41 42 43 44 45 46 47 48 49 50
625
FPUS83 KFGF 210131
OPUFGF
PRAIRIE TO PINES WEATHER ROUNDUP
NATIONAL WEATHER SERVICE EASTERN NORTH DAKOTA/GRAND FORKS ND
800 PM CDT WED SEP 20 2017

 **SATELLITE DATA USED TO AUGMENT SKY COVER AT AUTOMATED STATIONS**
 *****  WEATHER ACROSS EASTERN NORTH DAKOTA  *****

CITY           SKY/WX    TMP DP  RH WIND       PRES   REMARKS
GRAND FORKS    FAIR      58  47  66 S8        29.76R
GRAND FORKS AF FAIR      56  41  57 S8        29.76R
GRAND CITY NWS NOT AVBL
BUXTON           N/A     62  40  45 S7          N/A
DEVILS LAKE    FAIR      60  42  51 S10       29.73R
FARGO          FAIR      63  43  48 S9        29.81R
WAHPETON ARPT  FAIR      59  41  51 SE7       29.85R
$$

 *****  WEATHER ACROSS CENTRAL AND WESTERN NORTH DAKOTA  *****

CITY           SKY/WX    TMP DP  RH WIND       PRES   REMARKS
JAMESTOWN      FAIR      55  43  63 S7        29.77R
BISMARCK       FAIR      55  40  56 S8        29.72S
MINOT          FAIR      62  33  33 S7        29.64R
MINOT AFB      FAIR      59  35  40 S8        29.62R
GARRISON         N/A     57  39  51 SW5       29.67R
WILLISTON      FAIR      58  38  47 SE6       29.60R
DICKINSON      FAIR      54  32  43 S7        29.67R
HETTINGER      FAIR      58  31  35 S5        29.72R
$$

 *****  OTHER OBSERVATIONS NORTHEAST NORTH DAKOTA  *****

CITY           SKY/WX    TMP DP  RH WIND       PRES   REMARKS
WALHALLA       FAIR     N/A N/A N/A S6        29.70R
LANGDON        FAIR      52  39  62 S10       29.72R
CAVALIER       FAIR      57  43  58 S7        29.71R
GRAFTON        FAIR      54  43  66 S9        29.76R
CANDO          FAIR      54  41  62 S9        29.72R
FORT TOTTEN      N/A     61  39  44 S6        29.95S
ROLLA          FAIR      50  39  66 SW7       29.68R
RUGBY          FAIR      55  41  58 S8        29.68R
 ***** THE ABOVE OBSERVATIONS ARE NON NWS ARE NOT QUALITY
        CONTROLLED AND MAY MIS-REPORT RAIN FOR SNOW...
$$

 *****  OTHER OBSERVATIONS SOUTHEAST NORTH DAKOTA *****

CITY           SKY/WX    TMP DP  RH WIND       PRES   REMARKS
COOPERSTOWN    FAIR      55  45  67 S12       29.79R
VALLEY CITY    FAIR      59  45  58 S7        29.81R
OAKES          NOT AVBL
GWINNER        CLEAR     55  46  71 CALM      29.82R
SHEYENNE NWR     N/A     56  44  65 SE6       29.95S
BUFFALO          N/A     59  35  41 SW8         N/A
WYNDMERE       NOT AVBL
 ***** THE ABOVE OBSERVATIONS ARE NON NWS ARE NOT QUALITY
       CONTROLLED AND MAY MIS-REPORT RAIN FOR SNOW...
$$

  *****  WEATHER ACROSS NORTHERN MINNESOTA  *****

CITY           SKY/WX    TMP DP  RH WIND       PRES   REMARKS
FLAG ISLAND    FAIR      61  54  77 S8        29.76S
WARROAD        FAIR      57  46  67 S5        29.80R
ROSEAU         FAIR      57  46  67 S6        29.78R
HALLOCK        CLOUDY    55  45  67 S9        29.74R
THF RVR FALLS  FAIR      59  43  55 S7        29.81R
HALSTAD          N/A     59  45  58 S8          N/A
FOSSTON        FAIR      54  43  66 SE7       29.85R
BAUDETTE       FAIR      57  43  59 S7        29.81R
WASKISH        FAIR      54  46  76 S3        29.85R
CROOKSTON      FAIR      63  45  51 S9        29.80R
$$
  *****  WEATHER ACROSS CENTRAL AND WEST MINNESOTA  *****

CITY           SKY/WX    TMP DP  RH WIND       PRES   REMARKS
BEMIDJI        FAIR      55  43  63 S6        29.86R
PARK RAPIDS    FAIR      59  47  64 SE5       29.86R
WADENA         FAIR      54  46  76 CALM      29.88R
DETROIT LAKES  FAIR      59  46  63 CALM      29.88R
MOORHEAD       FAIR      63  43  48 S7        29.84R
FERGUS FALLS   FAIR      57  46  67 S6        29.86R
ELBOW LAKE     FAIR      56  48  75 S3        29.88R
MORRIS MN      FAIR      57  48  72 SE3       29.87R
STAPLES        NOT AVBL
WHEATON        FAIR      55  46  71 SE7       29.88R
$$
  *****  WEATHER ELSEWHERE ACROSS MINNESOTA  *****

CITY           SKY/WX    TMP DP  RH WIND       PRES   REMARKS
DULUTH         FAIR      58  48  69 W5        29.88R
INTRNTL FALLS  FAIR      51  44  77 CALM      29.84R
ELY            FAIR      52  50  93 CALM      29.89R
CLOQUET        FAIR      54  46  76 CALM      29.89R
BRAINERD       FAIR      53  49  86 CALM      29.89R
HIBBING        FAIR      48  47  96 CALM      29.88R
ALEXANDRIA     FAIR      58  47  66 SE6       29.89R
SAINT CLOUD    FAIR      55  52  89 CALM      29.88R
MINNEAPOLIS    FAIR      68  51  54 NW7       29.87R
$$

  *****  WEATHER ACROSS SOUTH DAKOTA  *****

CITY           SKY/WX    TMP DP  RH WIND       PRES   REMARKS
SIOUX FALLS    FAIR      65  46  50 CALM      29.88R
BROOKINGS      FAIR      63  46  54 S7        29.89R
WATERTOWN      FAIR      60  46  59 S6        29.85S
HURON          FAIR      64  47  53 SE9       29.82S
SISSETON         N/A     58  47  66 S8        29.83R
ABERDEEN       FAIR      55  43  63 SE8       29.80R
MITCHELL       FAIR      66  45  46 SE9       29.85R
PIERRE         FAIR      65  32  29 S7        29.75S
MOBRIDGE       FAIR      61  40  45 E8        29.74S
RAPID CITY     CLEAR     64  30  27 SW6       29.75R
$$

  *****  SOME WEATHER IN NEARBY STATES *****

CITY           SKY/WX    TMP DP  RH WIND       PRES   REMARKS
GLASGOW MT     FAIR      60  32  34 SW9       29.54R
GREAT FALLS MT FAIR      51  30  44 SW15G26   29.57R
CHEYENNE WY    FAIR      64  27  24 SE10      29.88F
SCOTTSBLUFF NE FAIR      68  35  29 E9        29.81S
OMAHA NE       FAIR      67  55  65 N7        29.86R
DES MOINES IA  FAIR      78  61  55 N5        29.82S
DAVENPORT IA   TSTM      72  67  84 S21G38    29.89R VSB 1
CHICAGO IL     FAIR      84  66  54 S10       29.85R
EAU CLAIRE WI  FAIR      65  57  75 NW5       29.84R
LA CROSSE WI   PTCLDY    73  63  68 NW8         N/A
$$

  *****  SOME NATIONAL WEATHER *****

CITY           SKY/WX    TMP DP  RH WIND       PRES   REMARKS
LA GUARDIA NY  MOCLDY    77  64  64 N10       29.91R
RALEIGH NC     FAIR      77  68  73 CALM      29.98R
ATLANTA GA     MOCLDY    79  67  66 NW7       30.03R
NEW ORLEANS LA LGT RAIN  76  74  93 CALM      29.99R
OKLAHOMA CITY  FAIR      82  72  71 S8        29.80S
ALBUQUERQUE NM FAIR      82  21  10 S14       29.95F
SALT LAKE CITY MOCLDY    77  37  23 SE9       29.62F
LOS ANGELES CA FAIR      71  62  73 W10       29.85F
BOISE ID       LGT RAIN  53  43  68 S9        29.73R
SEATTLE WA     PTSUNNY   55  47  74 S6        29.78R
$$

*** WEATHER ACROSS MANITOBA...SASKATCHEWAN AND ONTARIO ***
                ***ONTARIO***

CITY           SKY/WX    TMP DP  RH WIND       PRES   REMARKS
GERALDTON      DRIZZLE   63  61  94 S9        29.81R
THUNDER BAY    FOG       55  55 100 W2        29.83R VSB 3/8
SIOUX LOOKOUT  PTCLDY    50  48  93 S5        29.81R
TORONTO        PTCLDY    72  61  68 E5        30.03F
BIG TROUT LK   CLEAR     55  54  94 SW8       29.66R
PICKLE LAKE    PTCLDY    52  52 100 S7        29.76R
DRYDEN         CLEAR     55  46  71 S8        29.81R
KENORA         CLEAR     57  45  62 S7        29.78R
$$
                *** MANITOBA***

CITY           SKY/WX    TMP DP  RH WIND       PRES   REMARKS
BRANDON        PTCLDY    54  39  58 S9        29.61R
DAUPHIN        CLEAR     57  39  51 SW10      29.53R
ISLAND LAKE    NOT AVBL
PILOT MOUND      N/A     50  37  62 S7          N/A
THE PAS        MOCLDY    52  39  62 SW8       29.37R
THOMPSON       LGT RAIN  48  48 100 S8G18     29.31R
WINNIPEG       PTCLDY    63  39  42 SW10      29.67R
LYNN LAKE      LGT RAIN  43  43 100 NE20G28   29.29R FOG
CHURCHILL      LGT RAIN  43  43 100 E26G41    29.64F FOG
GILLAM         LGT RAIN  54  52  94 S9G22     29.44R
$$
                ***SASKATCHEWAN***

CITY           SKY/WX    TMP DP  RH WIND       PRES   REMARKS
ESTEVAN        MOCLDY    54  34  47 S6        29.58S
KINDERSLEY     PTCLDY    52  32  46 W7        29.42R
LLOYDMINSTER   CLOUDY    46  37  71 W9        29.39R
PRINCE ALBERT  MOCLDY    52  39  62 SW5       29.40R
REGINA         PTCLDY    52  32  46 SW9       29.49S
YORKTON        PTCLDY    57  34  41 SW10      29.50R



USA.gov is the U.S. government's official web portal to all federal, state and local government web resources and services.